This is the latest recevied weather packets stored in our database for station/object XE2VP-WX. If no packets are shown the sender has not sent any weather packets the latest 1 day(s).
| Time | Temp. | Humidity | Pressure | Rain* | Wind** | Luminosity | Snow |
|---|---|---|---|---|---|---|---|
| 1777993446 | 25.56° C | 56% | 940.2 hPa | 0 mm | 1.34 m/s, 321° | 485 W/m² | - |
| 1777993386 | 25.56° C | 56% | 940.2 hPa | 0 mm | 1.34 m/s, 308° | 483 W/m² | - |
| 1777993325 | 25.56° C | 56% | 940.2 hPa | 0 mm | 1.34 m/s, 305° | 477 W/m² | - |
| 1777993266 | 25.56° C | 56% | 940.2 hPa | 0 mm | 1.34 m/s, 285° | 465 W/m² | - |
| 1777993206 | 25.56° C | 57% | 940.2 hPa | 0 mm | 0.89 m/s, 308° | 465 W/m² | - |
| 1777993146 | 25.56° C | 56% | 940.2 hPa | 0 mm | 1.34 m/s, 333° | 456 W/m² | - |
| 1777993086 | 25.56° C | 56% | 940.2 hPa | 0 mm | 0.89 m/s, 291° | 451 W/m² | - |
| 1777993026 | 25.56° C | 56% | 940.2 hPa | 0 mm | 0.89 m/s, 299° | 448 W/m² | - |
| 1777992966 | 25.56° C | 56% | 940.1 hPa | 0 mm | 0.89 m/s, 310° | 440 W/m² | - |
| 1777992906 | 25.56° C | 56% | 940.1 hPa | 0 mm | 0.89 m/s, 318° | 436 W/m² | - |
| 1777992846 | 25.56° C | 56% | 940.2 hPa | 0 mm | 0.89 m/s, 284° | 449 W/m² | - |
| 1777992786 | 25.56° C | 56% | 940.2 hPa | 0 mm | 0.89 m/s, 296° | 446 W/m² | - |
| 1777992726 | 25.56° C | 57% | 940.2 hPa | 0 mm | 0.89 m/s, 222° | 443 W/m² | - |
| 1777992667 | 25° C | 57% | 940.2 hPa | 0 mm | 0.89 m/s, 233° | 442 W/m² | - |
| 1777992606 | 25° C | 57% | 940.2 hPa | 0 mm | 0.89 m/s, 236° | 437 W/m² | - |
| 1777992546 | 25° C | 57% | 940.2 hPa | 0 mm | 0.89 m/s, 288° | 430 W/m² | - |
| 1777992486 | 25° C | 57% | 940.2 hPa | 0 mm | 0.89 m/s, 294° | 430 W/m² | - |
| 1777992426 | 25° C | 57% | 940.2 hPa | 0 mm | 0.89 m/s, 254° | 430 W/m² | - |
| 1777992362 | 25° C | 58% | 940.2 hPa | 0 mm | 1.34 m/s, 256° | 425 W/m² | - |
| 1777992301 | 25° C | 58% | 940.2 hPa | 0 mm | 1.34 m/s, 249° | 410 W/m² | - |
| 1777992242 | 25° C | 58% | 940.2 hPa | 0 mm | 1.34 m/s, 291° | 413 W/m² | - |
| 1777992183 | 25° C | 57% | 940.2 hPa | 0 mm | 1.34 m/s, 316° | 421 W/m² | - |
| 1777992122 | 25° C | 57% | 940.2 hPa | 0 mm | 1.34 m/s, 290° | 424 W/m² | - |
| 1777992062 | 25° C | 58% | 940.2 hPa | 0 mm | 1.34 m/s, 304° | 421 W/m² | - |
| 1777992002 | 25° C | 58% | 940.2 hPa | 0 mm | 1.34 m/s, 250° | 419 W/m² | - |
* Rain latest hour (hover to see other rain measurements)
** Current wind speed in m/s (hover to see current wind gust speed)